Location: Nemiskam
(49.4820°N, 111.2775°W)
Time: 08:53:10
(UTC+00:00)

Envisat - Pass Details

Date: 04 December 2022
Orbit: 763 x 765 km, 98.2° (Epoch: 28 January)

Event Time Altitude Azimuth Distance (km) Brightness Sun altitude
Rises 23:59:14 0° 209° (SSW) 3,221 7.3 -5.3°
Reaches altitude 10° 00:02:13 10° 227° (SW) 2,301 7.1 -5.7°
Maximum altitude 00:05:42 18° 271° (W) 1,795 5.9 -6.2°
Drops below altitude 10° 00:09:11 10° 315° (NW) 2,313 5.8 -6.7°
Sets 00:12:14 0° 333° (NNW) 3,245 6.3 -7.1°
